AirNav   Everest Fuels
 
 515 users online  

4KS7 Butler Airpark
Rose Hill, Kansas, USA

GOING TO ROSE HILL?


FAA INFORMATION EFFECTIVE 23 MARCH 2023

Location

FAA Identifier: 4KS7
Lat/Long: 37-33-32.0680N 097-03-54.1380W
37-33.534467N 097-03.902300W
37.5589078,-97.0650383
(estimated)
Elevation: 1310 ft. / 399 m (estimated)
Variation: 07E (1985)
From city: 3 miles E of ROSE HILL, KS
Time zone: UTC -5 (UTC -6 during Standard Time)
Zip code: 67133

Airport Operations

Airport use: Private use. Permission required prior to landing
Activation date: 04/1991
Control tower: no
ARTCC: KANSAS CITY CENTER
FSS: WICHITA FLIGHT SERVICE STATION
Attendance: IREG
Wind indicator: yes
Segmented circle: yes

Airport Communications

WX AWOS-3P at 3AU (7 nm N): 124.175 (316-733-6696)
WX AWOS-3PT at BEC (11 nm NW): 119.45 (316-515-7116)
WX AWOS-2 at 1K1 (13 nm N): 118.3 (316-530-6004)
WX ASOS at AAO (14 nm NW): 134.025 (316-636-2541)
WX AWOS-3P at EQA (17 nm NE): 120.875 (316-322-8095)
WX ASOS at ICT (18 nm W): PHONE 316-945-8022

Nearby radio navigation aids

VOR radial/distance  VOR name  Freq  Var
ICTr107/27.1WICHITA VORTAC113.8007E

Airport Services

Runway Information

Runway 1/19

Dimensions: 2687 x 40 ft. / 819 x 12 m
Surface: turf
RUNWAY 1  RUNWAY 19
Traffic pattern: rightleft
Obstructions: 15 ft. road, 30 ft. from runwaynone

Airport Ownership and Management from official FAA records

Ownership: Privately-owned
Owner: BUTLER AIRPARK HOMEOWNERS ASSN INC
PO BOX 14
ROSE HILL, KS 67133
Phone (316) 925-2215
Manager: MILO D. MCCLURE
18404 SW PRAIRIE RIDGE RD
ROSE HILL, KS 67133
Phone (316) 925-2215

Airport Operational Statistics

Aircraft based on the field: 8
Single engine airplanes: 6
Ultralights: 2
    

Additional Remarks

ALL TRAFFIC REMAIN EAST OF RY.
FOR CD CTC WICHITA APCH AT 316-350-1520.

Instrument Procedures

There are no published instrument procedures at 4KS7.

Some nearby airports with instrument procedures:

3AU - Augusta Municipal Airport (7 nm N)
KCEA - Cessna Aircraft Field Airport (10 nm NW)
KIAB - Mc Connell Air Force Base (10 nm W)
KBEC - Beech Factory Airport (11 nm NW)
1K1 - Lloyd Stearman Field Airport (13 nm N)
KAAO - Colonel James Jabara Airport (14 nm NW)
KEQA - El Dorado/Capt Jack Thomas Memorial Airport (17 nm NE)
KICT - Wichita Dwight D Eisenhower National Airport (18 nm W)
 
Loc | Ops | Rwys | IFR | FBO | Links
Com | Nav | Svcs | Stats | Notes
Area around 4KS7 (Butler Airpark)
 
Road maps at: MapQuest Bing Google
 
Aerial photo
WARNING: Photo may not be current or correct
Aerial photo of 4KS7 (Butler Airpark)
Photo by Brian FitzGerald
Photo taken 15-Jun-2016
from 1/2 mile SSW at 900 AGL.

Do you have a better or more recent aerial photo of Butler Airpark that you would like to share? If so, please send us your photo.

 
Sectional chart

 
Airport distance calculator
Flying to Butler Airpark? Find the distance to fly.

From to 4KS7

Sunrise and sunset
Times for 26-Mar-2023
 Local
(UTC-5)
 Zulu
(UTC)
Morning civil twilight06:5811:58
Sunrise07:2412:24
Sunset19:4400:44
Evening civil twilight20:1001:10

Current date and time
Zulu (UTC)  26-Mar-2023 06:19:09
Local (UTC-5)  26-Mar-2023 01:19:09
 
METAR
K3AU 
7nm N 
260555Z AUTO 29004KT 10SM CLR 03/M01 A2991 RMK AO2
KIAB 
10nm W 
260555Z AUTO 31008KT 10SM CLR 05/M01 A2988 RMK AO2 SLP123 60000 T00481012 10109 20048 401650024 50006 $
KBEC 
11nm NW 
260555Z AUTO 28005KT 10SM CLR 04/M01 A2990 RMK AO2 T00431007 10105 20043 401680030
KAAO 
14nm NW 
260554Z AUTO 28006KT 10SM CLR 04/M01 A2990 RMK AO2 SLP129 60001 T00391006 10111 20033 401720028 50006 $
KEQA 
17nm NE 
260555Z AUTO 30005KT 10SM CLR 03/00 A2989 RMK AO2
KICT 
18nm W 
260553Z 29006KT 10SM CLR 02/M02 A2990 RMK AO2 SLP129 60000 T00221017 10094 20022 401670000 50002
TAF
KIAB 
10nm W 
260448Z 2604/2708 32009KT 9999 SKC QNH2982INS BECMG 2608/2609 VRB06KT 9999 BKN120 QNH2993INS BECMG 2614/2615 34012G18KT 9999 SCT100 BKN120 QNH3002INS BECMG 2617/2618 01012KT 9999 BKN100 QNH3003INS BECMG 2705/2706 05006KT 9999 SKC QNH3009INS TX09/2621Z TN03/2612Z
KICT 
18nm W 
260520Z 2606/2706 30007KT P6SM SCT250 FM261400 34012KT P6SM BKN050 FM261800 36013KT P6SM BKN050 FM270000 03007KT P6SM BKN090 FM270400 05007KT P6SM SCT240
NOTAMs
Click for the latest NOTAMs
NOTAMs are issued by the DoD/FAA and will open in a separate window not controlled by AirNav.

 

 
 

Would you like to see your business listed on this page?

 If your business provides an interesting product or service to pilots, flight crews, aircraft, or users of the Butler Airpark, you should consider listing it here.  To start the listing process, click on the button below
 
Add a business
 

Other Pages about Butler Airpark

Update a link
 
Copyright © AirNav, LLC. All rights reserved. Privacy Policy  Contact